Vertical_Velocity
0 1 -2 -2 1 -2 2 1 0 -1 1 -0 -1 -2 -0 -1 -1 -1 1 -1 -1 0 -1 -1 -1 -1 -2 -2 -1 0 1 -1 -2 -0 -2 -2 -0 1 -1 -1 -1 -3 0 -0 2 1 0
-1 2 -1 -1 -1 -1 -2 -0 1 -1 -1 -0 -0 -1 -0 -1 -2 -0 -1 -1 0 -2 -2 -1 0 -1 -1 -4 -1 -0 -0 1 0 1 -0 -1 -2 1 -3 -1 -2 2 1 2 2 -0 -1
1 1 0 1 -2 -1 0 -2 -1 -0 -0 -1 -1 -1 -1 0 -1 -1 -0 -0 -2 1 -1 -2 -0 0 -0 1 -0 -1 -1 -2 -1 -1 -0 1 0 -2 1 -0 2 -0 -4 -1 -0 0 -0
0 0 -1 0 0 -1 0 -1 -0 -2 -1 -2 -1 -1 -0 1 -1 -1 -3 -1 -2 -1 -1 -1 -3 0 -2 -1 -1 -0 1 1 1 -1 -1 1 1 -5 -1 3 -1 -4 -4 -1 0 -0 1
-2 -1 -0 1 -1 0 1 -1 -1 -1 -2 -2 -1 -2 -1 -0 0 -1 -0 -1 -1 -1 -0 -1 -2 -2 -1 1 -0 -0 -0 -2 1 1 0 1 0 -2 1 -3 -3 -2 -1 0 -3 -0 -1
2 -2 -1 -1 1 -0 1 -0 -0 -1 0 -1 -1 -1 -0 -1 -1 0 1 -1 -0 -1 -1 -1 0 -4 -3 -2 0 -1 -2 -0 -3 -1 -1 -2 -4 -3 -2 -3 -4 -2 0 0 -1 -1 1
1 2 -0 -2 -1 1 1 -1 -1 0 -1 -0 -0 -1 -1 -0 -0 0 0 -0 -1 -1 -5 -0 1 0 -1 -1 -1 1 2 -1 -0 -3 -2 -1 -7 -2 -2 -1 -0 -1 0 0 -1 -0 1
-0 1 2 -1 -1 -1 0 2 0 -1 -1 -2 0 1 -1 -1 -1 -1 -0 -2 -1 -0 -2 -0 0 -0 1 1 -0 0 2 -2 -2 -1 0 -7 -2 -1 -0 0 -1 -0 -0 -1 -1 0 2
0 1 0 1 -0 -0 -0 -0 1 0 0 -1 -2 -0 -0 0 -1 -1 -1 -2 -2 -0 -5 -1 -1 -1 -2 -1 -0 -2 -2 1 -2 -1 -0 -3 -1 0 -1 0 -0 -0 -1 -0 -2 -1 -0
2 -0 3 2 -3 1 0 -0 1 0 0 0 -3 -1 -1 0 -1 -0 -1 -1 -1 -2 -7 -2 -3 -1 -1 -0 -2 0 -0 -2 -3 -2 -0 0 0 -0 -0 -0 -3 1 -0 -0 -0 -3 -3
2 4 2 -3 6 -5 -1 1 0 1 0 0 -0 -0 -2 1 0 -1 -1 -1 -1 -1 -6 -2 -2 -1 0 -4 1 -3 1 -0 -0 0 -4 -3 0 0 0 1 -0 -3 -1 -1 -0 -0 -2
2 5 0 2 3 -6 -2 1 1 1 -0 -1 1 2 1 -0 1 -1 -0 0 -1 -14 -9 -0 -1 -2 -2 -1 -1 -1 -2 -2 0 -2 -2 2 -0 -0 2 1 0 -1 -2 -1 -1 -1 -3
-4 -2 1 0 -3 -5 0 -0 2 1 -0 -1 -1 -1 -1 1 -0 -2 -1 -0 -12 -6 -1 0 -0 -1 -0 -0 -1 -1 -1 -1 -3 -3 -1 -1 1 -0 -1 -2 -3 -2 -2 -3 -6 -5 -7
3 -2 2 3 2 -4 2 -1 -0 1 -1 -0 -0 -2 -1 -0 -0 -0 -0 -9 -1 -1 -1 0 -1 -0 -0 0 -0 -1 -1 -1 1 -2 -1 -2 -6 -1 -0 1 -3 -1 -1 -4 -3 -2 -4
1 -3 0 3 3 0 1 3 -1 1 0 -1 0 -0 -1 -0 -2 1 -2 -3 -6 -1 -3 -1 0 -1 -0 -0 1 -1 -0 -0 -1 -2 -8 -2 -1 1 -1 -0 -2 -1 0 -2 -2 -1 -2
1 2 7 0 9 10 5 1 0 1 3 -1 1 1 1 0 -0 -1 -6 -2 -1 -0 -1 -0 0 -0 0 -1 -1 -1 -1 -1 0 -0 0 -2 -7 1 -1 -0 1 -3 -4 -7 -2 -3 -2
-2 -2 2 2 14 -1 2 5 1 5 -0 -5 4 0 -1 -0 -0 -1 -4 -3 -0 0 -0 -2 -1 0 -1 -1 -0 -0 -2 -2 -0 1 0 -2 -7 -4 -2 -1 -4 2 0 -1 -2 -2 -3
-2 5 2 2 0 15 10 4 7 3 -0 2 -2 -2 -1 2 -6 1 -1 -0 0 0 0 -0 -1 -1 -2 -0 -0 0 -1 -0 1 -0 -1 1 -4 -1 -10 2 1 -0 -2 -3 -3 -5 -1
2 -1 3 3 2 -2 3 0 8 -1 8 3 -4 0 -0 1 -3 -0 0 0 -1 -0 0 -1 0 0 -0 -1 -4 0 -0 0 0 -0 -2 -4 -4 -4 -9 -7 -4 0 -1 -1 -1 -2 -4
1 0 1 -4 -3 -0 1 3 4 5 1 0 -4 -3 -2 -0 -2 -3 -1 -0 1 -0 0 -0 -1 -1 -2 0 -1 -1 -0 0 -0 -1 1 -1 -1 -5 -6 -6 -4 -0 1 0 0 1 -6
1 1 -2 4 -6 1 7 5 1 1 4 1 1 -1 1 -1 -1 0 -1 -1 0 0 -0 1 1 -1 -4 -0 0 -0 0 -1 0 1 1 -4 -1 1 -2 -1 1 -2 -1 -0 2 -11 3
1 -1 1 1 2 5 1 -2 0 4 5 5 -8 -8 1 -1 -1 -2 1 -1 -2 0 -4 -1 -1 -1 -0 -3 -8 -3 -3 -1 -6 1 -1 0 -3 -0 -2 -1 1 1 -1 0 -0 -2 3
1 0 -1 2 -3 7 -3 2 -7 2 4 0 1 1 -1 1 1 -1 -4 -2 -3 -2 1 0 -3 -2 1 -3 0 1 3 -0 -1 -6 -0 -2 -2 -1 -5 0 -1 -3 -7 -3 -1 -0 -4
-1 -2 -2 1 0 4 2 -1 3 2 -0 -1 -5 -0 -3 0 -0 -3 -0 -1 -1 -3 -4 0 0 -2 -0 -1 -1 -1 0 -0 -0 0 0 -1 -1 0 -2 -3 -5 -14 -0 -1 -1 -2 -0
-1 1 2 -1 -2 -1 -0 2 -1 13 3 -0 1 -5 -4 0 -1 0 2 -1 2 1 -1 0 2 -0 -0 0 -4 -5 -5 -6 -2 0 -0 -1 -2 -0 -0 -1 -16 -7 -3 -3 -6 -9 -1
4 1 -3 -2 -1 1 -0 4 2 12 2 4 5 5 -3 -11 -6 1 -2 -0 -1 0 1 1 1 2 0 -1 -2 -1 -3 -3 -4 -3 -0 -1 -1 1 1 2 -3 -8 -2 0 -1 -10 -0
2 1 -1 -0 0 1 -0 3 -0 -2 6 8 -4 5 -2 -5 -0 -0 -3 -5 -1 0 -1 0 1 -0 -0 -0 -0 -2 -3 -3 -3 -1 -0 0 1 -2 -1 -0 -11 -3 -1 0 -14 -16 -1
6 2 -1 -1 4 0 -3 3 4 4 3 6 1 0 -5 -2 1 -0 -0 -3 -2 2 -4 2 -1 -1 0 -0 -1 -3 -1 -4 -2 -3 -5 -7 -5 -2 2 3 -14 -1 -1 -6 -7 0 -1
3 1 -1 2 -3 -1 -3 -2 8 -1 -1 9 5 -2 -7 -2 -1 1 0 2 1 -1 -1 2 1 -3 -4 -3 -0 1 1 1 -3 -3 -2 -6 -10 -9 -9 -14 1 -0 -1 -1 0 -2 -0
Height
1534 1534 1534 1534 1534 1535 1534 1533 1532 1532 1530 1529 1528 1527 1525 1524 1524 1524 1524 1524 1525 1525 1524 1524 1524 1524 1523 1523 1525 1524 1524 1524 1524 1524 1525 1526 1527 1528 1531 1533 1535 1539 1544 1545 1546 1546 1548
1534 1534 1534 1533 1534 1534 1534 1534 1533 1532 1532 1530 1529 1528 1527 1527 1526 1526 1526 1527 1526 1526 1525 1525 1525 1525 1524 1525 1526 1525 1525 1525 1525 1526 1526 1528 1529 1530 1532 1537 1539 1543 1545 1548 1550 1551 1552
1532 1533 1533 1533 1534 1534 1534 1534 1534 1533 1532 1531 1530 1530 1529 1528 1528 1528 1528 1528 1527 1527 1526 1525 1525 1525 1525 1527 1526 1526 1526 1526 1527 1528 1528 1529 1530 1531 1535 1540 1545 1547 1552 1552 1553 1553 1554
1532 1532 1532 1532 1533 1533 1534 1534 1534 1533 1532 1531 1530 1530 1530 1529 1529 1529 1529 1528 1528 1527 1526 1526 1526 1526 1526 1527 1527 1527 1527 1527 1528 1528 1529 1530 1531 1532 1535 1542 1546 1551 1553 1555 1554 1554 1556
1530 1530 1530 1531 1531 1532 1533 1533 1533 1533 1533 1532 1531 1531 1530 1530 1530 1530 1529 1529 1528 1527 1527 1527 1527 1527 1528 1529 1529 1528 1528 1528 1529 1530 1531 1532 1533 1537 1541 1545 1553 1554 1556 1557 1554 1554 1556
1528 1529 1529 1529 1530 1531 1532 1533 1533 1533 1532 1532 1531 1531 1530 1530 1530 1530 1530 1529 1528 1528 1528 1528 1528 1530 1531 1532 1530 1529 1529 1529 1530 1531 1532 1533 1535 1542 1546 1549 1553 1553 1556 1554 1554 1553 1555
1527 1527 1528 1528 1529 1530 1531 1532 1532 1532 1532 1532 1532 1531 1531 1530 1530 1530 1529 1529 1531 1531 1529 1532 1533 1533 1533 1533 1533 1532 1530 1531 1531 1531 1536 1536 1542 1546 1547 1548 1550 1551 1553 1552 1553 1553 1553
1525 1526 1526 1527 1528 1528 1530 1531 1531 1531 1532 1532 1532 1532 1531 1530 1530 1530 1529 1528 1529 1532 1534 1535 1535 1534 1534 1533 1533 1533 1533 1533 1533 1538 1537 1541 1543 1545 1544 1545 1547 1548 1550 1553 1552 1552 1554
1522 1523 1524 1525 1525 1527 1528 1529 1530 1530 1531 1531 1531 1532 1531 1531 1530 1530 1529 1529 1530 1530 1533 1537 1536 1536 1537 1537 1536 1535 1535 1535 1536 1540 1542 1543 1545 1545 1545 1547 1548 1553 1552 1553 1556 1553 1553
1519 1520 1521 1523 1524 1524 1526 1527 1529 1529 1530 1530 1531 1531 1531 1531 1532 1530 1529 1529 1529 1530 1537 1542 1539 1539 1539 1538 1539 1537 1537 1538 1539 1543 1546 1547 1547 1546 1548 1548 1551 1551 1555 1555 1556 1561 1560
1515 1516 1518 1520 1521 1524 1524 1525 1527 1528 1529 1529 1530 1530 1530 1530 1530 1530 1531 1529 1529 1531 1543 1544 1541 1540 1539 1541 1543 1540 1539 1538 1541 1544 1546 1545 1549 1548 1549 1550 1552 1553 1554 1556 1558 1562 1565
1509 1512 1514 1516 1517 1520 1522 1523 1524 1526 1527 1528 1529 1529 1529 1530 1529 1529 1529 1529 1531 1535 1547 1540 1540 1541 1541 1541 1542 1541 1540 1541 1543 1546 1548 1552 1552 1554 1555 1557 1555 1556 1557 1560 1566 1570 1585
1504 1506 1509 1511 1513 1516 1518 1520 1522 1524 1525 1527 1528 1529 1529 1529 1529 1529 1530 1531 1538 1537 1539 1539 1540 1541 1542 1544 1542 1542 1542 1542 1545 1547 1547 1551 1553 1554 1555 1557 1558 1558 1559 1559 1560 1575 1553
1497 1501 1504 1506 1509 1511 1514 1516 1519 1522 1523 1525 1527 1528 1528 1528 1528 1529 1530 1532 1536 1534 1536 1539 1540 1542 1543 1546 1544 1543 1543 1545 1545 1547 1555 1555 1547 1557 1557 1557 1558 1562 1561 1559 1553 1559 1554
1489 1494 1498 1502 1504 1507 1510 1513 1516 1518 1521 1523 1525 1526 1527 1527 1528 1529 1531 1539 1533 1535 1537 1539 1540 1539 1544 1545 1546 1545 1545 1546 1545 1545 1554 1562 1549 1556 1557 1557 1559 1562 1564 1562 1568 1571 1577
1482 1488 1493 1497 1498 1502 1505 1509 1512 1515 1517 1520 1522 1525 1526 1526 1528 1530 1532 1533 1533 1534 1537 1538 1535 1540 1539 1545 1545 1546 1542 1543 1544 1546 1547 1555 1563 1561 1560 1560 1560 1559 1561 1563 1564 1562 1563
1476 1482 1487 1491 1493 1497 1501 1504 1508 1511 1514 1518 1521 1523 1524 1525 1528 1530 1536 1536 1534 1533 1535 1537 1537 1538 1540 1542 1545 1546 1542 1543 1544 1546 1546 1551 1558 1563 1561 1558 1553 1561 1564 1566 1563 1562 1557
1473 1476 1482 1485 1488 1490 1495 1499 1502 1507 1511 1515 1518 1523 1523 1524 1530 1532 1536 1533 1535 1535 1535 1536 1537 1537 1541 1545 1546 1549 1547 1544 1546 1546 1551 1552 1563 1565 1552 1558 1557 1556 1558 1560 1557 1553 1570
1467 1471 1475 1479 1483 1487 1490 1494 1497 1502 1507 1511 1515 1520 1522 1524 1528 1532 1533 1533 1533 1536 1537 1538 1539 1541 1542 1543 1549 1547 1545 1548 1547 1548 1551 1554 1564 1568 1545 1559 1558 1558 1557 1558 1561 1564 1558
1463 1467 1469 1473 1478 1482 1485 1488 1492 1497 1504 1510 1513 1519 1522 1524 1524 1524 1529 1532 1533 1535 1535 1536 1539 1540 1544 1544 1548 1546 1547 1549 1549 1549 1551 1552 1570 1555 1537 1535 1554 1561 1551 1550 1548 1563 1533
1458 1462 1463 1465 1471 1475 1479 1483 1488 1494 1500 1507 1508 1512 1514 1523 1523 1523 1525 1530 1532 1534 1535 1535 1537 1538 1542 1548 1546 1544 1547 1548 1548 1549 1552 1554 1563 1563 1552 1553 1550 1542 1539 1542 1540 1526 1529
1454 1456 1459 1461 1466 1469 1472 1476 1483 1490 1495 1501 1503 1507 1512 1518 1520 1522 1525 1528 1528 1532 1533 1535 1537 1535 1537 1539 1534 1539 1545 1548 1543 1547 1550 1555 1559 1564 1558 1548 1546 1535 1532 1528 1521 1517 1513
1450 1454 1456 1458 1460 1463 1467 1473 1477 1485 1491 1493 1497 1501 1506 1517 1520 1523 1521 1518 1522 1526 1530 1531 1533 1536 1538 1534 1534 1535 1535 1537 1539 1541 1547 1555 1560 1557 1543 1559 1555 1531 1509 1508 1510 1509 1505
1448 1450 1453 1454 1456 1459 1462 1467 1475 1482 1486 1491 1494 1498 1503 1513 1515 1515 1513 1516 1519 1520 1524 1530 1533 1533 1536 1535 1535 1535 1536 1537 1540 1542 1542 1548 1553 1553 1553 1558 1551 1501 1511 1510 1507 1505 1506
1446 1448 1450 1450 1452 1455 1460 1466 1472 1479 1482 1488 1492 1496 1498 1505 1508 1512 1513 1517 1519 1522 1526 1529 1530 1531 1534 1536 1538 1542 1541 1541 1545 1545 1543 1543 1547 1548 1545 1568 1519 1500 1510 1512 1510 1504 1509
1444 1445 1447 1449 1452 1455 1459 1465 1470 1476 1481 1486 1489 1491 1494 1498 1504 1506 1511 1514 1517 1521 1528 1528 1529 1530 1532 1535 1540 1547 1537 1533 1540 1547 1546 1545 1546 1541 1547 1540 1533 1511 1508 1509 1510 1513 1506
1442 1444 1446 1450 1452 1457 1462 1466 1470 1476 1480 1485 1487 1488 1492 1495 1501 1505 1506 1508 1511 1516 1522 1526 1528 1531 1531 1534 1541 1543 1541 1542 1534 1542 1550 1550 1549 1537 1533 1527 1512 1504 1504 1507 1517 1501 1505
1442 1443 1446 1450 1452 1457 1463 1466 1469 1474 1480 1485 1485 1486 1493 1497 1498 1499 1502 1503 1508 1510 1514 1520 1526 1529 1532 1535 1534 1533 1542 1534 1540 1538 1538 1537 1536 1539 1532 1528 1516 1500 1505 1504 1501 1502 1503
1440 1443 1446 1451 1452 1456 1459 1464 1469 1472 1478 1482 1483 1485 1493 1497 1498 1497 1499 1501 1503 1504 1505 1510 1511 1511 1513 1521 1524 1521 1525 1529 1531 1521 1527 1523 1512 1516 1512 1501 1498 1497 1498 1499 1499 1500 1502